Location: Newark
(23.7500°N, 102.4000°W)
Time: 03:16:23
(UTC+00:00)

N. Korean satellite - Visible Passes

Search period start: 25 September 2020 00:00
Search period end: 05 October 2020 00:00
Orbit: 455 x 503 km, 97.2° (Epoch: 24 September)

Date Brightness Start Highest point End Pass type
(mag) Time Alt. Az. Time Alt. Az. Time Alt. Az.
25 Sep 8.8 11:44:02 10° NE 11:47:10 28° E 11:50:15 10° SSE visible
26 Sep 10.0 11:19:44 10° ENE 11:21:04 12° E 11:22:24 10° ESE visible
28 Sep 7.5 11:58:58 10° NNE 12:02:26 50° E 12:05:50 10° S visible
29 Sep 9.5 11:33:44 10° NE 11:36:22 20° E 11:38:58 10° SE visible
01 Oct 6.5 12:14:06 10° N 12:17:39 86° W 12:21:07 10° SSW visible
02 Oct 8.4 11:48:24 10° NNE 11:51:37 33° E 11:54:46 10° SSE visible
03 Oct 9.9 11:23:42 10° ENE 11:25:30 14° E 11:27:18 10° SE visible
